sat.trackr.live / text

‹ back to catalog

STARLINK-37043

NORAD 68246 · 2026-054Q

PAYLOAD ACTIVE UNKNOWN

§ Identity

Operator
Country
US
Launch date
2026-03-17
Launch site
AFETR
Launch vehicle
Mass (kg)
RCS (m²)

Purposes: comms

External: N2YO · Heavens-Above · Gunter

§ Orbital elements

Epoch: 2026-09-19T23:53:12.192000Z

Period
93.85 min
Inclination
53.1569°
Eccentricity
0.0001326
Mean motion
15.34422839 rev/d
Perigee alt
461.7 km
Apogee alt
463.5 km
Semi-major
6,840.8 km
B*
4.2456e-4
RAAN
104.2033°
Arg perigee
79.9948°
Mean anomaly
280.1204°
Rev number
2,888

§ Raw data

STARLINK-370431 68246U 26054Q   26262.99528000  .00014005  00000+0  42456-3 0  99972 68246  53.1569 104.2033 0001326  79.9948 280.1204 15.34422839 28882

JSON: /api/v1/satellites/68246 · /tle

For live sub-satellite position, see the globe view (requires WebGL).

§ Visibility from observer

Set your observer location to see the next 7 days of passes ≥ 10°. The values pass through the URL so the page stays shareable.

No JS? Fill the form by hand. The geolocation button needs JavaScript.